AirNav   Air Wisconsin pilot careers
 
 749 users online  

L65 Perris Valley Airport
Perris, California, USA

GOING TO PERRIS?


FAA INFORMATION EFFECTIVE 04 JANUARY 2018

Location

FAA Identifier: L65
Lat/Long: 33-45-52.7000N / 117-13-08.4000W
33-45.878333N / 117-13.140000W
33.7646389 / -117.2190000
(estimated)
Elevation: 1413 ft. / 431 m (estimated)
Variation: 14E (1985)
From city: 1 mile SE of PERRIS, CA
Time zone: UTC -8 (UTC -7 during Daylight Saving Time)
Zip code: 92570

Airport Operations

Airport use: Open to the public
Activation date: 10/1962
Control tower: no
ARTCC: LOS ANGELES CENTER
FSS: RIVERSIDE FLIGHT SERVICE STATION
NOTAMs facility: RAL (NOTAM-D service available)
Attendance: DAWN-DUSK
Pattern altitude: 2413 ft. MSL
Wind indicator: yes
Segmented circle: yes

Airport Communications

CTAF: 122.775
WX AWOS-3 at HMT (10 nm E): 118.375 (951-925-6886)
WX AWOS-3 at F70 (12 nm S): 119.025 (951-696-1018)
WX ASOS at RAL (16 nm NW): PHONE 951-352-4392
WX AWOS-3 at SBD (20 nm N): 124.175 (909-382-0067)

Nearby radio navigation aids

VOR radial/distance  VOR name  Freq  Var
HDFr233/(1.8)HOMELAND VOR113.4014E
RALr121/(16.2)RIVERSIDE VOR112.4014E
PDZr106/18.0PARADISE VORTAC112.2015E
ELBr064/26.1EL TORO VOR/DME117.2014E
OCNr003/33.0OCEANSIDE VORTAC115.3015E
POMr109/34.0POMONA VORTAC110.4015E
PSPr248/39.8PALM SPRINGS VORTAC115.5013E

Airport Services

Fuel available: 100LL JET-A
FUEL AVBL FOR EMERG USE ONLY.
Parking: tiedowns
Airframe service: MAJOR
Powerplant service: MAJOR
Bottled oxygen: NONE
Bulk oxygen: NONE

Runway Information

Runway 15/33

Dimensions: 5100 x 50 ft. / 1554 x 15 m
Surface: asphalt, in good condition
RUNWAY 15  RUNWAY 33
Latitude: 33-46.286167N33-45.470333N
Longitude: 117-13.262333W117-13.018667W
Elevation: 1413.0 ft.
Gradient: 0.5%0.5%
Traffic pattern: rightleft
Displaced threshold: 1900 ft.144 ft.
Markings: basic, in good conditionbasic, in good condition
Obstructions: 30 ft. trees, 150 ft. from runway, 5:1 slope to clear
APCH RATIO TO DSPLCD THR 20:1.
none
APCH RATIO TO DSPLCD THLD 50:1.

Airport Ownership and Management from official FAA records

Ownership: Privately-owned
Owner: B & D CONATSER
2091 GOETZ ROAD
PERRIS, CA 92570
Phone 951-943-3797
Manager: PAT CONATSER
P.O. BOX 1823
PERRIS, CA 92370
Phone 951-943-9673
MAIN OFFICE TO LEAVE MSGS W/SECY - (951) 657-3904 FAX: (951) 657-6178. EMAIL: PERRISAIR@AOL.COM

Airport Operational Statistics

Aircraft based on the field: 57
Single engine airplanes: 10
Multi engine airplanes: 11
Jet airplanes: 1
Ultralights: 35
    
Aircraft operations: avg 75/day *
91% local general aviation
9% transient general aviation
<1% military
* for 12-month period ending 31 December 2016

Additional Remarks

EXTSV ULTRALIGHT & PARACHUTING ACTIVITIES DAILY; DO NOT OVERFLY AIRPORT; AVOID AIRSPACE ADJ EAST. ULTRALIGHTS ON & INVOF ARPT. ULTRALIGHT AND PARACHUTING ACTIVITIES CAN BE MONITORED ON FREQ 122.775.

Instrument Procedures

There are no published instrument procedures at L65.

Some nearby airports with instrument procedures:

KRIV - March Air Reserve Base (7 nm N)
KHMT - Hemet-Ryan Airport (10 nm E)
F70 - French Valley Airport (12 nm S)
KRAL - Riverside Municipal Airport (16 nm NW)
KRIR - Flabob Airport (16 nm NW)
KREI - Redlands Municipal Airport (20 nm N)
KSBD - San Bernardino International Airport (20 nm N)
 
Loc | Ops | Rwys | IFR | FBO | Links
Com | Nav | Svcs | Stats | Notes

San Bernardino International Airport Authority
 
Area around L65 (Perris Valley Airport)
 
Road maps at: MapQuest Bing Google
 
Aerial photo
WARNING: Photo may not be current or correct
Aerial photo of L65 (Perris Valley Airport)
Photo by Fred Emmert AirViews.com
Photo taken 26-Jan-2015
looking southeast.

Do you have a better or more recent aerial photo of Perris Valley Airport that you would like to share? If so, please send us your photo.

 
Sectional chart

 
Airport distance calculator
Flying to Perris Valley Airport? Find the distance to fly.

From to L65

Sunrise and sunset
Times for 22-Jan-2018
 Local
(UTC-8)
 Zulu
(UTC)
Morning civil twilight06:2614:26
Sunrise06:5214:52
Sunset17:0901:09
Evening civil twilight17:3601:36

Current date and time
Zulu (UTC)  23-Jan-2018 04:19:07
Local (UTC-8)  22-Jan-2018 20:19:07
 
METAR
KRIV 
7nm N 
230358Z AUTO 00000KT 10SM CLR 09/M07 A3017 RMK AO2 SLP220 T00911067
KF70 
12nm S 
230355Z AUTO 00000KT 10SM CLR 12/M07 A3017 RMK AO1
KRAL 
16nm NW 
230353Z 10004KT 10SM CLR 14/M08 A3017 RMK AO2 SLP209 T01441078
KREI 
20nm N 
SuperAWOS
230355Z AUTO 06006KT 10SM 11/M07 A3017
TAF
KRIV 
7nm N 
222004Z 2220/2402 VRB06KT 9999 SKC QNH3014INS TEMPO 2220/2223 06012KT BECMG 2317/2318 06010G15KT 9999 SKC QNH3012INS BECMG 2321/2322 VRB05KT 9999 SKC QNH3011INS TX18/2222Z TNM01/2315Z
NOTAMs
Click for the latest NOTAMs
NOTAMs are issued by the DoD/FAA and will open in a separate window not controlled by AirNav.

 

 
 

Would you like to see your business listed on this page?

 If your business provides an interesting product or service to pilots, flight crews, aircraft, or users of the Perris Valley Airport, you should consider listing it here.  To start the listing process, click on the button below
 
Add a business
 

Other Pages about Perris Valley Airport

Update a link
 
Copyright © AirNav, LLC. All rights reserved. Privacy Policy  Contact